Weather History for Marfa, TX

Change the Weather History Date:

Friday, November 25, 2011

  Actual Average Record
Temperature  
Mean Temperature 52 °F -  
Max Temperature 66 °F 59 °F 78 °F (1997)
Min Temperature 37 °F 30 °F 15 °F (1996)
Degree Days  
Heating Degree Days 14    
Growing Degree Days 2 (Base 50)    
Moisture  
Dew Point 35 °F    
Average Humidity 58    
Maximum Humidity 76    
Minimum Humidity 40    
Precipitation  
Precipitation 0.00 in - - ()
Sea Level Pressure  
Sea Level Pressure 30.02 in    
Wind  
Wind Speed 10 mph (West)    
Max Wind Speed 32 mph    
Max Gust Speed 38 mph    
Visibility 10 miles    
Events      
Averages and records for this station are not official NWS values.
T = Trace of Precipitation, MM = Missing Value Source: NWS Daily Summary

Daily Weather History Graph

Daily Weather History Graph

Search for Another Location

Airport:

Trip Planner

Search our weather history database for the weather conditions in past years. The results will help you decide how hot, cold, wet, or windy it might be!

Date:

Astronomy

Nov. 25, 2011 Rise Set
Actual Time 7:30 AM CST 5:55 PM CST
Civil Twilight 7:04 AM CST 6:21 PM CST
Nautical Twilight 6:34 AM CST 6:51 PM CST
Astronomical Twilight 6:05 AM CST 7:19 PM CST
Moon 7:56 AM CST (11/25) 6:30 PM CST (11/25)
Length of Visible Light 11h 17m
Length of Day
10h 25m
New Moon, 0% of the Moon is Illuminated
Nov 25
New Moon
Dec 2
First Quarter
Dec 10
Full
Dec 17
Last Quarter
Dec 24
New

Hourly Weather History & Observations

Time (CST) Temp. Windchill Dew Point Humidity Pressure Visibility Wind Dir Wind Speed Gust Speed Precip Events Conditions
12:15 AM 39.2 °F 35.9 °F 21.2 °F 49% 30.11 in 10.0 mi NNE 4.6 mph - N/A   Clear
12:55 AM 39.2 °F 37.0 °F 21.2 °F 49% 30.11 in 10.0 mi NNE 3.5 mph - N/A   Clear
1:15 AM 39.2 °F - 21.2 °F 49% 30.10 in 10.0 mi Calm Calm - N/A   Clear
1:35 AM 37.4 °F 34.9 °F 21.2 °F 52% 30.09 in 10.0 mi NNE 3.5 mph - N/A   Clear
1:55 AM 39.2 °F 35.0 °F 23.0 °F 52% 30.08 in 10.0 mi NNE 5.8 mph - N/A   Clear
2:15 AM 39.2 °F - 24.8 °F 56% 30.07 in 10.0 mi Calm Calm - N/A   Clear
2:35 AM 41.0 °F 38.0 °F 26.6 °F 57% 30.06 in 10.0 mi NNE 4.6 mph - N/A   Clear
2:55 AM 42.8 °F 39.3 °F 26.6 °F 53% 30.06 in 10.0 mi NE 5.8 mph - N/A   Clear
3:15 AM 42.8 °F 38.6 °F 28.4 °F 57% 30.05 in 10.0 mi ENE 6.9 mph - N/A   Clear
3:35 AM 46.4 °F 44.3 °F 30.2 °F 53% 30.05 in 10.0 mi East 4.6 mph - N/A   Clear
4:35 AM 41.0 °F 39.0 °F 28.4 °F 61% 30.03 in 10.0 mi NW 3.5 mph - N/A   Clear
4:55 AM 41.0 °F - 26.6 °F 57% 30.02 in 10.0 mi Calm Calm - N/A   Mostly Cloudy
5:15 AM 42.8 °F 39.3 °F 28.4 °F 57% 30.03 in 10.0 mi NW 5.8 mph - N/A   Overcast
10:15 AM 51.8 °F - 41.0 °F 67% 30.06 in 10.0 mi West 12.7 mph 20.7 mph N/A   Overcast
10:55 AM 51.8 °F - 44.6 °F 76% 30.05 in 10.0 mi West 4.6 mph - N/A   Overcast
11:35 AM 51.8 °F - 44.6 °F 76% 30.03 in 10.0 mi SSE 4.6 mph - N/A   Mostly Cloudy
11:55 AM 53.6 °F - 42.8 °F 67% 30.03 in 10.0 mi South 8.1 mph - N/A   Partly Cloudy
12:35 PM 53.6 °F - 42.8 °F 67% 30.00 in 10.0 mi South 6.9 mph - N/A   Mostly Cloudy
12:55 PM 55.4 °F - 42.8 °F 63% 29.99 in 10.0 mi South 11.5 mph - N/A   Partly Cloudy
1:15 PM 55.4 °F - 42.8 °F 63% 29.95 in 10.0 mi SSE 17.3 mph - N/A   Partly Cloudy
1:35 PM 60.8 °F - 44.6 °F 55% 29.96 in 10.0 mi South 17.3 mph - N/A   Partly Cloudy
1:55 PM 62.6 °F - 44.6 °F 52% 29.95 in 10.0 mi SSW 24.2 mph 28.8 mph N/A   Partly Cloudy
2:15 PM 64.4 °F - 44.6 °F 49% 29.94 in 10.0 mi SSW 21.9 mph 28.8 mph N/A   Scattered Clouds
2:35 PM 66.2 °F - 42.8 °F 43% 29.94 in 10.0 mi SW 26.5 mph 29.9 mph N/A   Mostly Cloudy
3:15 PM 64.4 °F - 39.2 °F 40% 29.94 in 10.0 mi WSW 29.9 mph 36.8 mph N/A   Mostly Cloudy
3:35 PM 62.6 °F - 42.8 °F 48% 29.95 in 10.0 mi West 23.0 mph 33.4 mph N/A   Mostly Cloudy
3:55 PM 62.6 °F - 42.8 °F 48% 29.95 in 10.0 mi West 26.5 mph 33.4 mph N/A   Partly Cloudy
4:15 PM 55.4 °F - 41.0 °F 58% 29.96 in 10.0 mi WNW 32.2 mph 38.0 mph N/A   Clear
4:35 PM 55.4 °F - 39.2 °F 54% 29.98 in 10.0 mi West 25.3 mph 31.1 mph N/A   Scattered Clouds
4:55 PM 57.2 °F - 35.6 °F 44% 29.98 in 10.0 mi West 21.9 mph - N/A   Scattered Clouds
5:15 PM 55.4 °F - 33.8 °F 44% 29.98 in 10.0 mi West 28.8 mph 35.7 mph N/A   Partly Cloudy
5:35 PM 53.6 °F - 35.6 °F 51% 29.99 in 10.0 mi West 24.2 mph 29.9 mph N/A   Clear
5:55 PM 53.6 °F - 35.6 °F 51% 30.00 in 10.0 mi WNW 23.0 mph 28.8 mph N/A   Clear
6:15 PM 53.6 °F - 35.6 °F 51% 30.01 in 10.0 mi West 20.7 mph 26.5 mph N/A   Clear
6:35 PM 51.8 °F - 35.6 °F 54% 30.03 in 10.0 mi WNW 15.0 mph - N/A   Clear
6:55 PM 51.8 °F - 35.6 °F 54% 30.04 in 10.0 mi WNW 13.8 mph - N/A   Clear
7:35 PM 48.2 °F - 35.6 °F 62% 30.04 in 10.0 mi WNW 13.8 mph - N/A   Clear
7:55 PM 48.2 °F - 35.6 °F 62% 30.04 in 10.0 mi West 16.1 mph - N/A   Clear
8:15 PM 48.2 °F - 35.6 °F 62% 30.03 in 10.0 mi West 18.4 mph - N/A   Clear
8:35 PM 48.2 °F - 35.6 °F 62% 30.04 in 10.0 mi West 16.1 mph - N/A   Clear
8:55 PM 48.2 °F - 35.6 °F 62% 30.03 in 10.0 mi WSW 12.7 mph - N/A   Clear
9:15 PM 48.2 °F - 35.6 °F 62% 30.04 in 10.0 mi WNW 6.9 mph - N/A   Clear
9:35 PM 48.2 °F - 37.4 °F 66% 30.05 in 10.0 mi WNW 11.5 mph - N/A   Clear
9:55 PM 48.2 °F - 37.4 °F 66% 30.05 in 10.0 mi WNW 11.5 mph - N/A   Clear
10:15 PM 46.4 °F 41.1 °F 37.4 °F 71% 30.05 in 10.0 mi West 11.5 mph - N/A   Clear
10:35 PM 46.4 °F 41.5 °F 37.4 °F 71% 30.05 in 10.0 mi WNW 10.4 mph - N/A   Clear
10:55 PM 44.6 °F 41.4 °F 35.6 °F 71% 30.05 in 10.0 mi NW 5.8 mph - N/A   Clear
11:35 PM 46.4 °F 40.4 °F 35.6 °F 66% 30.06 in 10.0 mi West 13.8 mph - N/A   Clear